Weather History for KGGE - October, 2011

Change the Weather History Date:

Tuesday, October 11, 2011

  Actual Average Record
Temperature  
Mean Temperature 70 °F -  
Max Temperature 75 °F 78 °F 87 °F (2014)
Min Temperature 64 °F 56 °F 51 °F (2012)
Cooling Degree Days 4    
Growing Degree Days 20 (Base 50)    
Moisture  
Dew Point 65 °F    
Average Humidity 86    
Maximum Humidity 94    
Minimum Humidity 73    
Precipitation  
Precipitation 0.55 in - - ()
Sea Level Pressure  
Sea Level Pressure 29.88 in    
Wind  
Wind Speed 11 mph (NE)    
Max Wind Speed 18 mph    
Max Gust Speed 31 mph    
Visibility 8 miles    
Events Rain    
Averages and records for this station are not official NWS values.
T = Trace of Precipitation, MM = Missing Value Source: NWS Daily Summary

Daily Weather History Graph

Daily Weather History Graph

Search for Another Location

Airport or City:

Trip Planner

Search our weather history database for the weather conditions in past years. The results will help you decide how hot, cold, wet, or windy it might be!

Date:

Astronomy

Oct. 11, 2011 Rise Set
Actual Time 7:18 AM EDT 6:49 PM EDT
Civil Twilight 6:53 AM EDT 7:13 PM EDT
Nautical Twilight 6:24 AM EDT 7:42 PM EDT
Astronomical Twilight 5:56 AM EDT 8:11 PM EDT
Moon 6:23 PM EDT (10/11) 6:53 AM EDT (10/11)
Length of Visible Light 12h 20m
Length of Day
11h 30m
Full, 100% of the Moon is Illuminated
Oct 11
Full
Oct 11
Full
Oct 19
Last Quarter
Oct 26
New
Nov 2
First Quarter

Hourly Weather History & Observations

Time (EDT) Temp. Dew Point Humidity Pressure Visibility Wind Dir Wind Speed Gust Speed Precip Events Conditions
12:15 AM 71.6 °F 64.4 °F 78% 29.95 in 10.0 mi ENE 10.4 mph - N/A   Overcast
12:35 AM 71.6 °F 62.6 °F 73% 29.94 in 10.0 mi ENE 10.4 mph 19.6 mph N/A   Overcast
12:55 AM 69.8 °F 64.4 °F 83% 29.95 in 7.0 mi East 18.4 mph 27.6 mph 0.01 in Rain Rain
1:15 AM 68.0 °F 62.6 °F 83% 29.95 in 5.0 mi East 12.7 mph 31.1 mph N/A Rain Light Rain
1:35 AM 68.0 °F 62.6 °F 83% 29.94 in 7.0 mi East 16.1 mph 25.3 mph 0.01 in Rain Light Rain
1:55 AM 68.0 °F 62.6 °F 83% 29.93 in 10.0 mi East 15.0 mph 21.9 mph 0.02 in   Light Drizzle
2:15 AM 68.0 °F 60.8 °F 78% 29.93 in 10.0 mi ENE 15.0 mph 21.9 mph N/A   Drizzle
2:35 AM 68.0 °F 60.8 °F 78% 29.92 in 10.0 mi ENE 9.2 mph 17.3 mph 0.01 in   Overcast
3:15 AM 68.0 °F 62.6 °F 83% 29.91 in 5.0 mi ENE 13.8 mph 23.0 mph 0.06 in Rain Rain
3:35 AM 66.2 °F 62.6 °F 88% 29.90 in 7.0 mi NE 12.7 mph 18.4 mph 0.11 in Rain Rain
3:55 AM 66.2 °F 62.6 °F 88% 29.90 in 10.0 mi NE 13.8 mph 17.3 mph 0.11 in   Overcast
4:15 AM 66.2 °F 62.6 °F 88% 29.89 in 10.0 mi NNE 15.0 mph 24.2 mph N/A   Overcast
4:35 AM 64.4 °F 60.8 °F 88% 29.89 in 7.0 mi NE 12.7 mph 18.4 mph 0.07 in Rain Light Rain
4:55 AM 64.4 °F 60.8 °F 88% 29.89 in 7.0 mi NNE 12.7 mph - 0.11 in Rain Rain
5:15 AM 64.4 °F 60.8 °F 88% 29.89 in 10.0 mi NNE 6.9 mph 16.1 mph 0.03 in Rain Rain
5:55 AM 64.4 °F 60.8 °F 88% 29.88 in 10.0 mi NE 12.7 mph 21.9 mph 0.04 in Rain Light Rain
6:15 AM 64.4 °F 60.8 °F 88% 29.88 in 10.0 mi NNE 9.2 mph - 0.01 in Rain Light Rain
6:55 AM 64.4 °F 60.8 °F 88% 29.88 in 10.0 mi NNE 11.5 mph 18.4 mph 0.06 in Rain Light Rain
7:15 AM 64.4 °F 60.8 °F 88% 29.89 in 10.0 mi NNE 12.7 mph - N/A Rain Light Rain
7:35 AM 64.4 °F 60.8 °F 88% 29.89 in 10.0 mi NNE 10.4 mph 19.6 mph N/A   Overcast
7:55 AM 64.4 °F 62.6 °F 94% 29.89 in 10.0 mi NE 16.1 mph 20.7 mph 0.02 in Rain Rain
8:35 AM 64.4 °F 60.8 °F 88% 29.90 in 7.0 mi North 3.5 mph 9.2 mph 0.06 in   Heavy Drizzle
8:55 AM 64.4 °F 60.8 °F 88% 29.90 in 7.0 mi North 6.9 mph - 0.08 in Rain Rain
9:15 AM 64.4 °F 62.6 °F 94% 29.90 in 4.0 mi NNE 6.9 mph - 0.06 in Rain Rain
9:35 AM 64.4 °F 62.6 °F 94% 29.90 in 7.0 mi North 6.9 mph - 0.08 in   Drizzle
10:15 AM 64.4 °F 62.6 °F 94% 29.90 in 10.0 mi NNE 10.4 mph 17.3 mph N/A Rain Rain
10:35 AM 66.2 °F 62.6 °F 88% 29.89 in 10.0 mi NNE 11.5 mph - 0.01 in   Overcast
10:55 AM 68.0 °F 64.4 °F 88% 29.89 in 10.0 mi NNE 11.5 mph - 0.01 in   Overcast
11:15 AM 68.0 °F 64.4 °F 88% 29.89 in 10.0 mi NNE 11.5 mph - N/A   Overcast
11:35 AM 69.8 °F 64.4 °F 83% 29.89 in 10.0 mi NE 12.7 mph 16.1 mph N/A   Overcast
12:15 PM 69.8 °F 66.2 °F 88% 29.90 in 10.0 mi NE 10.4 mph - N/A   Overcast
12:35 PM 71.6 °F 66.2 °F 83% 29.88 in 7.0 mi NE 11.5 mph - N/A   Overcast
12:55 PM 71.6 °F 68.0 °F 88% 29.88 in 7.0 mi NE 10.4 mph 16.1 mph N/A   Overcast
1:15 PM 73.4 °F 68.0 °F 83% 29.88 in 10.0 mi NE 11.5 mph 17.3 mph N/A   Overcast
1:55 PM 71.6 °F 66.2 °F 83% 29.87 in 10.0 mi NE 11.5 mph - N/A   Overcast
2:15 PM 71.6 °F 68.0 °F 88% 29.86 in 7.0 mi NE 10.4 mph - N/A   Overcast
2:35 PM 73.4 °F 68.0 °F 83% 29.85 in 7.0 mi NE 8.1 mph - N/A   Overcast
2:55 PM 73.4 °F 68.0 °F 83% 29.85 in 7.0 mi NE 9.2 mph - N/A   Overcast
3:35 PM 75.2 °F 68.0 °F 78% 29.85 in 7.0 mi NE 9.2 mph - N/A   Mostly Cloudy
3:55 PM 75.2 °F 68.0 °F 78% 29.84 in 7.0 mi NE 6.9 mph - N/A   Overcast
4:15 PM 75.2 °F 68.0 °F 78% 29.84 in 10.0 mi NE 10.4 mph - N/A   Overcast
4:35 PM 73.4 °F 68.0 °F 83% 29.84 in 10.0 mi ENE 9.2 mph - N/A   Overcast
4:55 PM 73.4 °F 68.0 °F 83% 29.85 in 7.0 mi ENE 8.1 mph - N/A   Overcast
5:15 PM 73.4 °F 68.0 °F 83% 29.84 in 7.0 mi NE 8.1 mph - N/A   Overcast
5:35 PM 73.4 °F 68.0 °F 83% 29.84 in 7.0 mi NE 6.9 mph - N/A   Overcast
5:55 PM 73.4 °F 68.0 °F 83% 29.84 in 7.0 mi NE 6.9 mph - N/A   Overcast
6:15 PM 73.4 °F 69.8 °F 88% 29.84 in 7.0 mi ENE 5.8 mph - N/A   Overcast
6:35 PM 73.4 °F 69.8 °F 88% 29.84 in 5.0 mi ENE 5.8 mph - N/A   Overcast
6:55 PM 71.6 °F 69.8 °F 94% 29.84 in 7.0 mi ENE 5.8 mph - N/A   Overcast
7:15 PM 71.6 °F 69.8 °F 94% 29.84 in 7.0 mi ENE 5.8 mph - N/A   Overcast
7:35 PM 71.6 °F 69.8 °F 94% 29.85 in 7.0 mi ENE 3.5 mph - N/A   Overcast
7:55 PM 71.6 °F 69.8 °F 94% 29.85 in 7.0 mi ENE 4.6 mph - N/A   Overcast
8:15 PM 73.4 °F 69.8 °F 88% 29.85 in 10.0 mi ENE 6.9 mph - N/A   Overcast
8:55 PM 71.6 °F 69.8 °F 94% 29.86 in 10.0 mi ENE 10.4 mph 16.1 mph N/A   Light Drizzle
9:15 PM 71.6 °F 69.8 °F 94% 29.86 in 7.0 mi East 6.9 mph - N/A   Overcast
9:35 PM 71.6 °F 69.8 °F 94% 29.86 in 7.0 mi ENE 5.8 mph - N/A   Overcast
9:55 PM 71.6 °F 69.8 °F 94% 29.86 in 7.0 mi ENE 6.9 mph - N/A   Overcast
10:15 PM 71.6 °F 69.8 °F 94% 29.86 in 7.0 mi East 6.9 mph - N/A   Overcast
10:35 PM 71.6 °F 69.8 °F 94% 29.87 in 7.0 mi East 8.1 mph - N/A   Overcast
10:55 PM 71.6 °F 69.8 °F 94% 29.87 in 7.0 mi East 4.6 mph - N/A   Overcast
11:15 PM 71.6 °F 69.8 °F 94% 29.88 in 7.0 mi ENE 4.6 mph - N/A   Overcast
11:35 PM 71.6 °F 69.8 °F 94% 29.87 in 5.0 mi Calm Calm - N/A   Mostly Cloudy
11:55 PM 71.6 °F 69.8 °F 94% 29.87 in 5.0 mi Calm Calm - N/A   Overcast